Location: Guayaquil
(2.1667°S, 79.9000°W)
Time: 16:45:52
(UTC-05:00)

Envisat - Visible Passes

Search period start: 28 November 2021 00:00
Search period end: 08 December 2021 00:00
Orbit: 764 x 766 km, 98.2° (Epoch: 28 November)

Date Brightness Start Highest point End Pass type
(mag) Time Alt. Az. Time Alt. Az. Time Alt. Az.
28 Nov 4.2 04:31:32 10° NNE 04:36:20 44° ESE 04:41:08 10° S visible
29 Nov 5.9 03:56:42 10° ENE 03:59:36 15° ESE 04:02:32 10° SE visible
29 Nov 3.7 05:33:56 10° NNW 05:38:20 30° WNW 05:42:45 10° SW visible
30 Nov 2.9 04:56:29 10° NNE 05:01:33 88° WNW 05:06:39 10° SSW visible
01 Dec 4.8 04:20:21 10° NE 04:24:49 32° ESE 04:29:18 10° SSE visible
02 Dec 6.1 03:46:51 10° E 03:48:07 11° ESE 03:49:23 10° ESE visible
02 Dec 3.4 05:22:03 10° N 05:26:48 42° WNW 05:31:35 10° SSW visible
03 Dec 3.3 04:45:01 10° NNE 04:50:02 67° ESE 04:55:05 10° S visible
04 Dec 5.3 04:09:20 10° NE 04:13:18 23° ESE 04:17:17 10° SSE visible
05 Dec 3.0 05:10:18 10° N 05:15:16 58° WNW 05:20:16 10° SSW visible
06 Dec 4.0 04:33:39 10° NNE 04:38:31 48° ESE 04:43:23 10° S visible
07 Dec 5.7 03:58:34 10° ENE 04:01:48 17° ESE 04:05:01 10° SE visible
07 Dec 3.9 05:36:15 10° NNW 05:40:31 28° WNW 05:44:48 10° SW visible
